INTELSAT 19 (IS-19) (38356 NORAD) Tracking and Keplerian Element Data

This shows tracking and keplerian element data for the satellite.

Feedback or suggestion? Click here.




ElementValue
Catalog38356
NameINTELSAT 19 (IS-19)
Epoch Orbit4865
Epoch Day354.18948917
Epoch Year2025
RAAN358.3296
Inclination0.0114
Eccentricity0.0002734
Argument of Perigee267.0055
Mean Anonmoly57.9081
Mean Motion1.00271267
Decay Rate-3.2E-07
L11 38356U 12030A 25354.18948917 -.00000032 00000+0 00000+0 0 9991
L22 38356 0.0114 358.3296 0002734 267.0055 57.9081 1.00271267 48659



Live tracking and technical data element details for INTELSAT 19 (IS-19) (NORAD 38356). INTELSAT 19 (IS-19) can be tracked NOW for your location showing map with azimuth and elevation plus other details from your city location.







IsCatalogInMostPopularTable: catalog: 38356, numindb: 815
Update: records affected: 1



GetName: 38356 INTELSAT 19 (IS-19)

Hit Count: updated at: Sun, 08 Feb 2026 17:11:08 GMT